When you browse on this site, cookies collect data to enhance your experience and personalize the content and advertising you see.
Visit our Privacy Policy to learn more. By continuing to use the site, you agree to this use of cookies and data.
  • In Hungary
  • List of Countries
  • For 7 days
  • Water Temperature
  • Satellite Maps
  • Weather Map
  • News
  • Weather Widgets
  • user-avatar
    Login

    Hourly Weather Lehi

    Today, 22 February, Friday

    Time Temperature Precipitation Wind Pressure Humidity
    00:00 -4°C° 0.2 mm 1 mps 635 mmHg 84%
    01:00 -6°C° 0.2 mm 2 mps 635 mmHg 85%
    02:00 -6°C° 0.2 mm 2 mps 635 mmHg 85%
    03:00 -7°C° 0.1 mm 2 mps 636 mmHg 85%
    04:00 -7°C° 0.1 mm 2 mps 636 mmHg 85%
    05:00 -8°C° 0.1 mm 2 mps 636 mmHg 85%
    06:00 -8°C° 0.1 mm 2 mps 637 mmHg 84%
    07:00 -7°C° 0.1 mm 1 mps 638 mmHg 84%
    08:00 -7°C° 0.1 mm 1 mps 638 mmHg 84%
    09:00 -7°C° 0 mm 2 mps 638 mmHg 81%
    10:00 -6°C° 0 mm 2 mps 638 mmHg 78%
    11:00 -6°C° 0 mm 3 mps 639 mmHg 75%
    12:00 -5°C° 0 mm 3 mps 638 mmHg 75%
    13:00 -5°C° 0 mm 3 mps 638 mmHg 75%
    14:00 -5°C° 0 mm 3 mps 638 mmHg 74%
    15:00 -5°C° 0 mm 3 mps 638 mmHg 76%
    16:00 -5°C° 0 mm 3 mps 638 mmHg 77%
    17:00 -6°C° 0 mm 3 mps 638 mmHg 78%
    18:00 -6°C° 0 mm 2 mps 639 mmHg 79%
    19:00 -7°C° 0 mm 2 mps 639 mmHg 81%
    20:00 -8°C° 0 mm 1 mps 640 mmHg 83%
    21:00 -8°C° 0 mm 1 mps 640 mmHg 82%
    22:00 -9°C° 0 mm 1 mps 641 mmHg 81%
    23:00 -9°C° 0 mm 0 mps 641 mmHg 80%

    Tomorrow, 23 February, Saturday

    Time Temperature Precipitation Wind Pressure Humidity
    00:00 -10°C° 0 mm 0 mps 641 mmHg 79%
    01:00 -10°C° 0 mm 1 mps 642 mmHg 78%
    02:00 -10°C° 0 mm 1 mps 642 mmHg 77%
    03:00 -10°C° 0 mm 1 mps 642 mmHg 77%
    04:00 -10°C° 0 mm 1 mps 643 mmHg 78%
    05:00 -10°C° 0 mm 1 mps 643 mmHg 78%
    06:00 -12°C° 0 mm 2 mps 643 mmHg 78%
    07:00 -12°C° 0 mm 2 mps 644 mmHg 79%
    08:00 -12°C° 0 mm 2 mps 644 mmHg 79%
    09:00 -9°C° 0 mm 2 mps 644 mmHg 75%
    10:00 -7°C° 0 mm 2 mps 644 mmHg 72%
    11:00 -5°C° 0 mm 2 mps 645 mmHg 68%
    12:00 -5°C° 0 mm 3 mps 644 mmHg 66%
    13:00 -4°C° 0 mm 3 mps 644 mmHg 64%
    14:00 -2°C° 0 mm 3 mps 644 mmHg 62%
    15:00 -2°C° 0 mm 2 mps 644 mmHg 64%
    16:00 -2°C° 0 mm 2 mps 644 mmHg 65%
    17:00 -2°C° 0 mm 2 mps 644 mmHg 67%
    18:00 -3°C° 0 mm 2 mps 645 mmHg 68%
    19:00 -4°C° 0 mm 2 mps 645 mmHg 70%
    20:00 -5°C° 0 mm 2 mps 645 mmHg 72%
    21:00 -5°C° 0 mm 2 mps 645 mmHg 70%
    22:00 -6°C° 0 mm 2 mps 646 mmHg 69%
    23:00 -6°C° 0 mm 2 mps 646 mmHg 68%

    Day after tomorrow, 24 February, Sunday

    Time Temperature Precipitation Wind Pressure Humidity
    00:00 -7°C° 0 mm 2 mps 646 mmHg 67%
    01:00 -7°C° 0 mm 2 mps 646 mmHg 67%
    02:00 -7°C° 0 mm 2 mps 646 mmHg 66%
    03:00 -7°C° 0 mm 2 mps 645 mmHg 66%
    04:00 -7°C° 0 mm 2 mps 645 mmHg 67%
    05:00 -7°C° 0 mm 2 mps 645 mmHg 67%
    06:00 -6°C° 0 mm 2 mps 645 mmHg 68%
    07:00 -6°C° 0 mm 2 mps 645 mmHg 69%
    08:00 -5°C° 0 mm 2 mps 645 mmHg 70%
    09:00 -4°C° 0 mm 2 mps 646 mmHg 68%
    10:00 -2°C° 0 mm 3 mps 646 mmHg 67%
    11:00 0°C° 0 mm 3 mps 646 mmHg 65%
    12:00 +1°C° 0 mm 3 mps 645 mmHg 66%
    13:00 +2°C° 0 mm 3 mps 645 mmHg 66%
    14:00 +2°C° 0 mm 3 mps 644 mmHg 66%
    15:00 +2°C° 0 mm 3 mps 644 mmHg 67%
    16:00 +2°C° 0 mm 3 mps 643 mmHg 68%
    17:00 +3°C° 0 mm 2 mps 643 mmHg 69%
    18:00 +2°C° 0 mm 2 mps 643 mmHg 71%
    19:00 -1°C° 0 mm 2 mps 643 mmHg 72%
    20:00 -2°C° 0 mm 2 mps 643 mmHg 74%
    21:00 -2°C° 0 mm 2 mps 643 mmHg 73%
    22:00 -2°C° 0 mm 2 mps 643 mmHg 73%
    23:00 -3°C° 0 mm 2 mps 643 mmHg 72%

    25 February, Monday

    Time Temperature Precipitation Wind Pressure Humidity
    00:00 -4°C° 0 mm 3 mps 643 mmHg 71%
    01:00 -4°C° 0 mm 3 mps 643 mmHg 70%
    02:00 -4°C° 0 mm 3 mps 642 mmHg 69%
    03:00 -2°C° 0 mm 3 mps 642 mmHg 69%
    04:00 -2°C° 0 mm 3 mps 642 mmHg 69%
    05:00 -2°C° 0 mm 3 mps 642 mmHg 68%
    06:00 -2°C° 0.1 mm 3 mps 642 mmHg 69%
    07:00 -1°C° 0.1 mm 3 mps 642 mmHg 70%
    08:00 -1°C° 0.1 mm 3 mps 642 mmHg 70%
    09:00 0°C° 0.1 mm 3 mps 642 mmHg 68%
    10:00 +2°C° 0.1 mm 3 mps 642 mmHg 65%
    11:00 +3°C° 0.1 mm 3 mps 642 mmHg 63%
    12:00 +4°C° 0 mm 3 mps 641 mmHg 64%
    13:00 +4°C° 0 mm 4 mps 641 mmHg 65%
    14:00 +5°C° 0 mm 4 mps 640 mmHg 66%
    15:00 +5°C° 0 mm 3 mps 640 mmHg 66%
    16:00 +5°C° 0 mm 3 mps 640 mmHg 65%
    17:00 +4°C° 0 mm 3 mps 639 mmHg 64%
    18:00 +3°C° 0 mm 3 mps 640 mmHg 65%
    19:00 +2°C° 0 mm 3 mps 640 mmHg 66%
    20:00 +1°C° 0 mm 3 mps 640 mmHg 67%
    21:00 +1°C° 0.1 mm 3 mps 640 mmHg 68%
    22:00 +1°C° 0.1 mm 3 mps 640 mmHg 69%
    23:00 +1°C° 0.1 mm 3 mps 641 mmHg 70%

    26 February, Tuesday

    Time Temperature Precipitation Wind Pressure Humidity
    00:00 +1°C° 0.1 mm 3 mps 641 mmHg 70%
    01:00 +1°C° 0.1 mm 3 mps 641 mmHg 70%
    02:00 +1°C° 0.1 mm 3 mps 641 mmHg 70%
    03:00 +1°C° 0.1 mm 3 mps 641 mmHg 70%
    04:00 +1°C° 0.1 mm 3 mps 641 mmHg 70%
    05:00 +1°C° 0.1 mm 3 mps 641 mmHg 70%
    06:00 +1°C° 0 mm 3 mps 641 mmHg 70%
    07:00 +1°C° 0 mm 3 mps 642 mmHg 69%
    08:00 +1°C° 0 mm 3 mps 642 mmHg 68%
    09:00 +3°C° 0 mm 3 mps 642 mmHg 67%
    10:00 +4°C° 0 mm 3 mps 642 mmHg 66%
    11:00 +5°C° 0 mm 4 mps 642 mmHg 65%
    12:00 +6°C° 0 mm 4 mps 642 mmHg 66%
    13:00 +6°C° 0 mm 4 mps 642 mmHg 66%
    14:00 +7°C° 0 mm 4 mps 642 mmHg 67%
    15:00 +7°C° 0 mm 4 mps 642 mmHg 66%
    16:00 +8°C° 0 mm 3 mps 642 mmHg 65%
    17:00 +7°C° 0 mm 3 mps 641 mmHg 64%
    18:00 +7°C° 0 mm 3 mps 642 mmHg 65%
    19:00 +5°C° 0 mm 3 mps 642 mmHg 67%
    20:00 +4°C° 0 mm 3 mps 642 mmHg 68%
    21:00 +3°C° 0 mm 3 mps 642 mmHg 69%
    22:00 +2°C° 0 mm 3 mps 642 mmHg 70%
    23:00 +2°C° 0 mm 3 mps 642 mmHg 70%

    27 February, Wednesday

    Time Temperature Precipitation Wind Pressure Humidity
    00:00 +2°C° 0 mm 3 mps 642 mmHg 70%
    01:00 +1°C° 0 mm 3 mps 642 mmHg 69%
    02:00 +1°C° 0 mm 3 mps 643 mmHg 68%
    03:00 +1°C° 0 mm 3 mps 643 mmHg 68%
    04:00 +2°C° 0 mm 3 mps 643 mmHg 68%
    05:00 +2°C° 0 mm 3 mps 643 mmHg 67%
    06:00 +3°C° 0.1 mm 2 mps 643 mmHg 68%
    07:00 +3°C° 0.1 mm 2 mps 643 mmHg 69%
    08:00 +3°C° 0.1 mm 2 mps 643 mmHg 70%
    09:00 +4°C° 0.6 mm 2 mps 643 mmHg 73%
    10:00 +4°C° 0.6 mm 2 mps 643 mmHg 75%
    11:00 +5°C° 0.6 mm 2 mps 643 mmHg 77%
    12:00 +4°C° 0.3 mm 3 mps 643 mmHg 77%
    13:00 +5°C° 0.3 mm 3 mps 643 mmHg 76%
    14:00 +5°C° 0.3 mm 3 mps 643 mmHg 75%
    15:00 +5°C° 0.1 mm 3 mps 643 mmHg 76%
    16:00 +6°C° 0.1 mm 2 mps 643 mmHg 77%
    17:00 +6°C° 0.1 mm 2 mps 643 mmHg 78%
    18:00 +5°C° 0.1 mm 2 mps 643 mmHg 79%
    19:00 +6°C° 0.1 mm 1 mps 643 mmHg 80%
    20:00 +5°C° 0.1 mm 1 mps 643 mmHg 81%
    21:00 +5°C° 0 mm 1 mps 643 mmHg 80%
    22:00 +3°C° 0 mm 2 mps 642 mmHg 79%
    23:00 +3°C° 0 mm 2 mps 642 mmHg 79%
    Show more